Tracking 19908 objects as of 19-Oct-2019
HD Live streaming from Space Station
objects crossing your sky now

IRIDIUM 33 DEB

Track IRIDIUM 33 DEB now!
10-day predictions


NORAD ID: 38233
Int'l Code: 1997-051ZH
Perigee: 724.4 km
Apogee: 958.6 km
Inclination: 86.2 °
Period: 101.6 minutes
Semi major axis: 7212 km
RCS: 0.0081 m2 (small)
Launch date: September 14, 1997
Source: United States (US)
Launch site: TYURATAM MISSILE AND SPACE COMPLEX (TTMTR)

Note: This is SATELLITE DEBRIS
aabbcc
Your satellite tracking list
Your tracking list is empty




NASA's NSSDC Master Catalog

Two Line Element Set (TLE):
1 38233U 97051ZH  19285.81467888  .00001920  00000-0  82675-3 0  9999
2 38233  86.2113 297.6201 0162321 222.9499 260.5724 14.17342590505799
Source of the keplerian elements: AFSPC